User: anonymous   Login
Location: Unspecified
(0.0000°N, 0.0000°E)
Time: 08:54:52
(UTC+00:00)
Language:

TOMSK-TPU 120 - Orbit

View from above orbital plane
View from above orbital plane
View from above satellite
View from above satellite

Ground track
Ground track

The orbit data is extracted from the following two-line orbital elements,

1 42910U 98067MZ  18267.89192915 +.00023171 +00000-0 +21441-3 0  9993
2 42910 051.6337 220.0637 0004258 212.5605 147.5129 15.67409263063004
Epoch (UTC): 24 September 2018 21:24:22
Eccentricity: 0.0004258
inclination: 51.6337°
perigee height: 363 km
apogee height: 369 km
right ascension of ascending node: 220.0637°
argument of perigee: 212.5605°
revolutions per day: 15.67409263
mean anomaly at epoch: 147.5129°
orbit number at epoch: 6300

The dashed part of the orbit path shows where the satellite is in the earth's shadow,  

DLR